Terug naar catalogus

FENGYUN 1C DEB

ActiefPO
NORAD 32316·DEBRIS·🇨🇳 China

Gelanceerd May 10, 1999 vanaf Taiyuan Satellite Launch Center

Loading…

Volgende Passages (komende 24 uur)

TLE

VersSource: Space-Track

Epoch: Sep 14, 2026, 16:42 UTC

1 32316U 99025CXH 26257.69596620  .00001670  00000-0  40564-3 0  9991
2 32316  99.5085 326.2744 0027111 224.6670 286.9858 14.54283270997850

Volg FENGYUN 1C DEB in realtime met AllMySat

Download on the App Store